Location: Penland
(33.6770°N, 96.4542°W)
Time: 00:15:00
(UTC+00:00)

Daily predictions for brighter satellites

Satellite Brightness Start Highest point End
(mag) Time Altitude Azimuth Time Altitude Azimuth Time Altitude Azimuth
Gbstr 26 Del rocket 4.3 01:44:16 10° NW 01:51:51 73° NE 01:58:05 10° SE
Cosmos 2360 4.5 01:49:04 10° S 01:54:27 47° ESE 01:59:52 10° NNE
CSL-04 Debris 4.3 01:50:10 10° SSE 01:55:30 63° ENE 02:00:50 10° N
ATLAS 2AS CENTAUR R/B 3.7 01:52:05 10° SSE 01:58:35 30° ESE 02:05:01 10° NE
CZ-4B R/B 3.1 01:57:08 10° ENE 01:58:51 14° E 02:00:34 10° SE
deb Chang Zheng 4 3.5 01:55:08 10° SSE 01:59:15 86° W 02:03:23 10° NNW
Cosmos 2061 Rocket 4.4 01:53:56 10° SSW 02:00:06 68° W 02:06:16 10° N
Cosmos 1151 Rocket 2.9 01:56:49 10° S 02:01:05 71° E 02:05:19 10° NNE
USA 186 1.1 01:59:54 10° SSE 02:02:20 59° ENE 02:04:40 10° N
NOSS 3-4 (A) 3.5 01:57:53 10° SW 02:03:30 78° WNW 02:09:26 10° NNE
NOSS 3-4 (C) 3.5 01:57:54 10° SW 02:03:34 79° WNW 02:09:31 10° NNE
Cosmos 2297 Rocket 2.6 01:58:13 10° N 02:03:39 46° ENE 02:09:02 10° SE
OBJECT-B 0.9 02:02:28 10° S 02:05:20 63° W 02:08:14 10° NNW
COBE Rocket 4.5 02:01:02 10° SE 02:05:49 42° ENE 02:10:32 10° N
Cosmos 1340 4.0 02:06:39 10° SE 02:09:29 21° E 02:12:20 10° NE
CZ-4 R/B 3.2 02:06:11 10° SSW 02:09:44 31° W 02:13:22 10° NW
Cosmos 968 Rocket 4.0 02:05:35 10° SSW 02:10:41 64° WNW 02:15:48 10° N
Meteor 1-5 Rocket 4.1 02:07:08 10° N 02:12:29 87° E 02:17:46 10° S
Resurs 1-3 4.1 02:09:18 10° SE 02:13:26 43° ENE 02:17:35 10° N
NOSS 3-2 (A) 4.4 02:05:43 10° NW 02:13:42 75° WSW 02:22:34 10° SSE
Cosmos 1666 Rocket 3.8 02:10:33 10° N 02:14:53 53° E 02:19:13 10° SSE
Cosmos 1805 Rocket 4.4 02:11:11 10° NNW 02:15:30 52° W 02:19:47 10° S
SJ-6B 2.7 02:12:12 10° SSE 02:16:01 81° ENE 02:19:47 10° N
H-2A R/B 2.6 02:12:31 10° SSE 02:16:56 86° ENE 02:21:14 10° NNW
SJ 16-02 2.9 02:15:43 12° SE 02:17:54 17° E 02:20:44 10° NE
Cosmos 1315 Rocket 2.9 02:16:15 10° N 02:20:15 57° E 02:24:05 10° SSE
Cosmos 1633 Rocket 3.2 02:18:34 10° N 02:22:51 53° E 02:26:50 11° SSE
Meteor 1-10 Rocket 4.1 02:18:20 10° S 02:23:51 81° E 02:29:27 10° N
Okean O Rocket 4.4 02:23:35 10° SW 02:26:00 15° W 02:28:26 10° WNW
Cosmos 1743 4.2 02:26:01 10° NNE 02:28:51 20° ENE 02:30:10 17° ESE
Sich 1 4.2 02:25:24 10° NNW 02:29:31 44° W 02:33:36 10° SSW
Meteor 1-27 Rocket 3.9 02:27:22 10° S 02:32:57 58° E 02:38:42 10° NNE
NOSS 3-2 (C) 4.2 02:25:01 10° NNW 02:33:01 87° ENE 02:40:54 14° SSE
Cosmos 1470 Rocket 4.1 02:30:25 10° N 02:34:28 39° E 02:37:01 20° SE
Cosmos 44 4.0 02:32:49 10° NW 02:36:54 42° WSW 02:40:58 10° S
OAO 3 Rocket 3.3 02:32:32 10° W 02:37:27 79° N 02:41:32 15° E
CENTAUR R/B 3.8 02:29:25 10° NW 02:37:55 61° WSW 02:46:47 10° SSE
Cosmos 2278 4.4 02:33:04 10° SSE 02:38:02 33° ESE 02:43:02 10° NE
Cosmos 2208 Rocket 4.1 02:34:22 10° NNW 02:39:47 89° ENE 02:44:20 15° SSE
Resurs 01 Rocket 2.1 02:39:24 21° SE 02:41:58 43° ENE 02:46:09 10° N
Cosmos 1515 Rocket 3.5 02:37:57 10° S 02:42:15 64° E 02:46:35 10° NNE
Cosmos 2219 3.3 02:37:46 10° NNW 02:43:19 59° ENE 02:46:59 21° SE
Ariane Rocket 3.7 02:40:48 20° SE 02:43:39 36° ENE 02:48:16 10° N
Cosmos 2034 Rocket 4.5 02:42:42 16° SSE 02:47:13 41° E 02:53:04 10° NNE
IGS 5A 3.9 02:44:13 11° S 02:48:12 61° W 02:52:19 10° NNW
Cosmos 921 Rocket 4.4 02:47:50 10° NNE 02:51:32 24° ENE 02:52:48 21° E
PSLV R/B 4.1 02:47:31 10° N 02:51:33 70° WNW 02:55:32 10° SSW
Landsat 7 3.8 02:48:06 16° SSE 02:51:55 86° WSW 02:56:39 10° NNW
Cosmos 2263 Rocket 4.0 02:48:30 10° NNE 02:51:58 16° ENE 02:54:16 13° E
USA 238 DEB 4.1 02:45:34 10° NW 02:53:01 72° WSW 02:59:08 17° SSE
USA 238 4.1 02:45:41 10° NW 02:53:08 73° WSW 02:59:13 18° SSE
Okean-O 4.4 02:50:03 10° SSW 02:53:51 28° W 02:57:42 10° NW
Meteor 1-11 Rocket 3.8 02:48:02 10° N 02:54:00 76° E 02:58:21 19° SSE
SWIFT 4.4 02:52:07 10° SSW 02:53:45 13° S 02:53:45 13° S
Cosmos 2228 Rocket 4.1 02:58:45 27° ESE 02:59:25 29° E 03:03:19 10° NNE
Aureole 1 Rocket 4.1 02:59:34 10° SW 03:02:44 33° WNW 03:05:33 10° N
Okean 1 3.7 03:02:18 37° SE 03:03:05 42° E 03:06:54 10° NNE
Cosmos 2344 3.8 02:55:52 10° SW 03:03:45 72° WNW 03:11:09 10° NNE
IRAS Rocket 4.3 02:59:01 10° NNE 03:04:39 81° WNW 03:10:17 10° SSW
Cosmos 1536 2.7 03:03:17 10° N 03:07:18 83° E 03:08:52 37° SSE
RESURS DK-1 2.2 03:04:51 18° S 03:07:51 70° ESE 03:11:57 10° NNE
Cosmos 1184 Rocket 3.2 03:07:32 26° SSW 03:08:58 55° W 03:11:55 10° N
Cosmos 2227 Rocket 2.4 03:05:16 10° NNW 03:10:54 69° WSW 03:14:18 25° S
ASTRO E2 3.1 03:07:32 10° W 03:11:15 42° SSW 03:11:34 41° S
SL-4 R/B 2.6 03:08:15 10° NW 03:12:39 51° NE 03:13:57 37° E
Cosmos 1980 Rocket 2.5 03:07:20 10° SSW 03:12:54 68° WNW 03:18:32 10° NNE
Cosmos 1777 Rocket 3.9 03:13:05 26° S 03:15:58 62° ESE 03:21:07 10° NNE
Cosmos 1354 Rocket 4.2 03:12:31 10° SSW 03:17:45 75° WNW 03:23:03 10° NNE
H-2A R/B 4.2 03:14:28 10° NNW 03:17:49 25° WNW 03:21:11 10° SW
SPOT 3 Rocket 3.8 03:18:44 38° ESE 03:20:16 52° ENE 03:25:15 10° N
Cosmos 2322 Rocket 3.7 03:23:15 20° E 03:23:15 20° E 03:25:58 10° NE
IRS-1A Rocket 4.5 03:21:27 25° S 03:24:47 68° WSW 03:30:31 10° NNW
Meteor 2-4 Rocket 4.1 03:28:29 40° ESE 03:29:26 43° E 03:34:48 10° NNE
Cosmos 389 Rocket 2.8 03:26:37 10° NNW 03:30:04 58° W 03:30:24 55° SW
CZ-4B R/B 4.0 03:28:05 10° NNW 03:30:21 18° WNW 03:32:35 10° WSW
Meteor 1-19 Rocket 4.1 03:29:12 27° S 03:32:16 86° W 03:37:42 10° N
Cosmos 1975 4.4 03:33:47 10° NNE 03:36:18 24° NE 03:36:18 24° NE
GENESIS II 4.2 03:39:23 70° NNE 03:39:23 70° NNE 03:42:52 10° NNE
MetOp-B 4.1 03:38:00 42° S 03:39:51 77° WSW 03:45:14 10° NNW
Helios 1A Rocket 3.2 03:43:33 55° NE 03:43:33 55° NE 03:47:05 10° N
Milstar 3 Cent rocket 4.4 03:29:19 10° W 03:43:53 34° SW 03:47:54 26° S
Cosmos 2297 Rocket 4.3 03:43:21 10° NW 03:47:15 19° W 03:51:08 10° SW
ATLAS 2AS CENTAUR R/B 3.7 03:41:35 10° SW 03:49:12 54° NW 03:56:41 10° NNE
Cosmos 1092 Rocket 4.0 03:43:37 10° N 03:49:41 59° E 03:50:44 52° ESE
Cosmos 1634 Rocket 3.9 03:48:30 52° SE 03:49:48 64° E 03:55:55 10° NNE
Nadezhda 4 Rocket 4.0 03:43:58 10° N 03:50:09 74° W 03:52:28 40° SSW
Meteor 2-14 Rocket 4.3 03:44:58 10° N 03:51:04 87° W 03:52:52 49° S
USA 81 4.2 03:51:32 52° E 03:51:32 52° E 03:56:33 10° NNE
ERS-1 Rocket 3.1 03:52:28 55° E 03:52:37 55° ENE 03:57:31 10° N
SJ 16-02 3.0 03:52:33 11° SW 03:56:08 31° WNW 04:00:02 10° N
OAO 1 4.4 03:51:14 10° WSW 03:56:44 72° SSE 03:56:44 72° SSE
Meteor 2-9 Rocket 4.2 03:52:46 10° N 03:58:29 79° W 03:59:35 58° SSW
CZ-2C R/B 3.7 03:55:46 10° NNE 04:00:34 87° WNW 04:00:44 83° SW
SL-16 R/B 2.0 04:00:33 70° SSE 04:01:03 75° ESE 04:06:43 10° NNE
Cosmos 1346 Rocket 3.9 04:11:56 42° N 04:11:56 42° N 04:14:39 10° N
Cosmos 2026 Rocket 3.8 04:08:21 10° N 04:14:34 82° E 04:15:15 72° SSE
Timation 2 Rocket 4.4 04:08:59 10° NNW 04:15:32 61° WSW 04:17:03 50° SSW
Resurs 01 Rocket 4.2 04:16:57 11° WSW 04:18:37 13° W 04:20:41 10° WNW
ATLAS 3B R/B 3.6 04:13:29 10° NNW 04:20:27 41° NE 04:22:21 35° E
OAO 3 Rocket 4.3 04:16:07 10° W 04:19:18 37° WSW 04:19:18 37° WSW
Meteor 2-8 Rocket 4.5 04:21:06 61° SW 04:22:08 75° W 04:28:14 10° N
SPOT 5 3.3 04:22:35 62° WSW 04:22:41 63° W 04:27:51 10° NNW
Terra 2.1 04:23:27 64° N 04:23:27 64° N 04:27:29 10° NNW
Cosmos 2360 Rocket 3.1 04:27:32 37° NE 04:27:32 37° NE 04:31:11 10° NNE
ISS -0.9 04:24:50 10° NNW 04:25:58 17° N 04:25:58 17° N
Cosmos 2263 Rocket 2.5 04:30:48 10° NNW 04:35:57 58° W 04:35:57 58° W
Cosmos 990 Rocket 4.4 04:37:51 58° N 04:37:51 58° N 04:42:04 10° NNE
Cosmos 1898 Rocket 4.3 04:52:43 45° NNE 04:52:43 45° NNE 04:56:23 10° NNE
Cosmos 2279 Rocket 4.2 04:51:40 61° W 04:51:58 62° W 04:58:08 10° N
Cosmos 1066 Rocket 4.4 04:52:39 68° NNW 04:52:39 68° NNW 04:57:43 10° N
ARIANE 5 R/B 4.3 05:01:18 30° NW 05:01:18 30° NW 05:03:59 10° NNW
ATLAS CENTAUR R/B 4.1 04:59:21 10° N 05:01:48 16° NE 05:01:48 16° NE
Cosmos 2322 Rocket 3.1 05:04:59 40° WNW 05:05:28 41° WNW 05:10:45 10° N
Cosmos 2333 Rocket 3.2 05:13:10 38° NE 05:13:10 38° NE 05:16:37 10° NNE
USA 215 3.3 05:05:40 10° NE 05:12:12 75° NW 05:12:52 69° W
Cosmos 1844 Rocket 3.6 05:10:26 10° N 05:14:32 43° NNE 05:14:32 43° NNE
Cosmos 2219 Rocket 3.4 05:31:30 36° NNE 05:31:30 36° NNE 05:34:44 10° NNE
Cosmos 2237 Rocket 4.2 06:02:09 20° ENE 06:02:09 20° ENE 06:04:13 10° NE
COSMOS 2428 3.8 06:05:46 41° N 06:05:46 41° N 06:09:24 10° NNE
Cosmos 2360 Rocket 4.2 06:09:14 18° WNW 06:10:01 19° WNW 06:13:56 10° NNW
ATLAS 3B R/B 3.8 06:04:16 10° NW 06:09:35 36° W 06:09:35 36° W
CZ-4C R/B 3.8 06:05:43 10° NNW 06:13:01 47° NE 06:14:45 42° E
NOSS 3-1 (C) 4.2 06:15:05 10° NNW 06:23:02 75° ENE 06:23:27 74° E
Cosmos 2278 Rocket 3.6 06:31:41 10° N 06:36:05 32° NE 06:36:05 32° NE
Lacrosse 5 4.1 06:43:41 18° ENE 06:43:41 18° ENE 06:45:04 10° NE
ATLAS CENTAUR R/B 4.2 06:36:50 10° NW 06:37:47 16° NW 06:37:47 16° NW
ATLAS 5 CENTAUR R/B 4.0 06:37:29 10° NNW 06:45:38 34° NE 06:45:39 34° NE
SL-16 R/B 4.2 06:49:47 20° ENE 06:49:47 20° ENE 06:52:16 10° NE
Cosmos 2333 Rocket 4.5 06:55:08 14° WNW 06:55:47 14° NW 06:58:46 10° NNW
ADEOS Rocket 4.2 07:00:11 31° NW 07:00:11 31° NW 07:03:31 10° NNW
Cosmos 2315 Rocket 4.3 07:17:55 65° NNE 07:17:55 65° NNE 07:23:19 10° N
COSMOS 2455 4.3 07:18:09 27° E 07:18:09 27° E 07:21:58 10° NE
Cosmos 1709 Rocket 4.3 07:13:00 10° N 07:18:05 60° NNE 07:18:05 60° NNE
USA 267 3.2 07:26:11 79° N 07:26:11 79° N 07:32:24 10° NW
CZ-2D R/B 3.4 07:22:25 10° NNE 07:26:09 33° ENE 07:26:09 33° ENE
Lacrosse 5 rocket 3.9 07:36:40 17° NE 07:36:40 17° NE 07:37:41 10° NE
Meteor 2-5 Rocket 4.1 07:40:07 61° NNE 07:40:07 61° NNE 07:44:49 10° NNE
USA 229 DEB 3.8 07:32:34 10° NNW 07:40:07 81° WSW 07:40:07 81° WSW
USA 229 3.8 07:32:41 10° NNW 07:40:15 82° WSW 07:40:15 82° WSW
Cosmos 2237 Rocket 3.5 07:43:57 30° NW 07:43:57 30° NW 07:48:15 10° N
Centaur D-1AR AC-48 4.4 07:50:17 45° S 07:50:21 45° S 08:38:39 10° ESE
Centaur D-1AR AC-48 4.4 07:50:17 45° S 07:50:21 45° S 08:38:40 10° ESE
Centaur D-1AR AC-48 4.4 07:50:18 45° S 07:50:21 45° SSE 08:38:39 10° ESE
Resurs 1-4 Rocket 2.6 07:47:01 10° NNE 07:51:19 56° NE 07:51:19 56° NE
Cosmos 839 Rocket 4.2 07:46:51 10° NNW 07:53:34 79° WSW 07:53:40 78° SW
CZ-4C R/B 3.8 07:54:23 10° NW 07:59:52 36° W 07:59:52 36° W
Cosmos 1943 Rocket 3.0 07:58:16 10° N 08:03:43 47° ENE 08:05:08 39° ESE
IDEFIX/ARIANE 42P 3.7 07:59:23 10° NNE 08:04:11 35° E 08:04:17 35° E
ADEOS II 2.8 08:00:33 10° NNE 08:05:23 44° E 08:05:23 44° E
MOS 1 Rocket 4.5 08:10:22 34° ENE 08:10:22 34° ENE 08:14:09 10° N
Cosmos 2278 Rocket 4.0 08:15:55 10° NW 08:17:53 19° WNW 08:17:53 19° WNW
Lacrosse 5 3.4 08:22:52 25° NW 08:23:19 26° NW 08:27:34 10° NNE
NPP 3.7 08:22:27 10° N 08:27:35 67° WNW 08:27:35 67° WNW
Cosmos 1455 4.0 08:25:44 10° N 08:27:35 28° N 08:27:35 28° N
SL-16 R/B 3.0 08:31:39 38° WNW 08:31:39 38° WNW 08:36:54 10° N
Cosmos 2369 Rocket 3.9 08:28:56 10° N 08:33:50 30° ENE 08:38:41 10° ESE
Cosmos 2154 Rocket 4.1 08:28:19 10° N 08:34:39 72° E 08:36:42 44° SSE
Cosmos 1271 Rocket 3.7 08:34:54 10° N 08:38:06 45° NE 08:38:06 45° NE
AQUA 4.0 08:36:11 10° N 08:40:27 59° NW 08:40:27 59° NW
IRS P6 4.4 08:35:34 10° NNE 08:40:52 86° ESE 08:41:18 76° S
FALCON 9 R/B 4.2 08:08:47 10° WNW 08:41:09 65° SSW 08:48:53 10° SE
BREEZE-M DEB (TANK) 3.4 08:42:54 67° WSW 08:43:33 80° NW 08:46:45 10° NE
Cosmos 2228 3.9 08:40:53 10° N 08:45:03 44° E 08:45:55 39° ESE
SL-16 R/B 2.4 08:46:14 57° SSW 08:47:21 69° WSW 08:53:34 10° NNW
Cosmos 1536 Rocket 4.4 08:53:49 38° NW 08:53:49 38° NW 08:57:10 10° N
Cosmos 1603 3.8 08:53:54 51° S 08:55:15 71° ESE 09:00:52 10° NNE
Cosmos 2074 Rocket 4.2 08:51:01 10° NNW 08:57:02 49° W 08:57:47 47° WSW
Cosmos 1295 Rocket 4.4 08:55:52 10° N 09:02:11 73° W 09:04:25 42° SSW
COSMOS 2455 3.6 09:01:17 33° W 09:02:36 37° WNW 09:08:11 10° N
GPS 2-04 Rocket1 3.3 09:05:26 42° E 09:05:26 42° E 09:07:53 10° ENE
Cosmos 2327 Rocket 4.4 08:58:02 10° N 09:04:26 80° W 09:07:17 36° S
DNEPR-1 R/B 3.3 09:06:04 74° W 09:06:14 75° WNW 09:10:37 10° NNE
Cosmos 1328 3.9 09:06:30 63° SE 09:06:52 68° E 09:10:48 10° NNE
CZ-2D R/B 3.5 09:02:58 10° NNW 09:07:04 23° WNW 09:07:28 23° WNW
Lacrosse 5 rocket 3.9 09:12:55 10° NW 09:13:27 10° NNW 09:14:00 10° NNW
Helios 1B rocket 3.2 09:11:52 10° NNE 09:15:47 46° E 09:17:16 31° SSE
CZ-3 R/B 4.5 08:18:48 10° WSW 09:21:05 76° S 09:34:52 10° E
MSX 4.0 09:15:44 10° N 09:21:22 56° WNW 09:23:23 37° SW
Cosmos 1606 Rocket 3.5 09:17:51 10° N 09:22:16 81° E 09:24:16 32° SSE
OAO 2 Rocket 3.1 09:21:48 44° WSW 09:23:21 85° SSE 09:28:18 10° E
Cosmos 1943 3.4 09:23:26 38° WSW 09:25:19 55° WNW 09:30:54 10° N
Helios 1A 3.4 09:28:06 41° W 09:28:06 41° W 09:32:03 10° NNW
Cosmos 2181 Rocket 4.0 09:25:17 24° S 09:29:18 88° E 09:35:29 10° N
Cosmos 962 Rocket 4.4 09:24:02 10° N 09:30:08 74° W 09:34:31 20° S
Cosmos 1624 Rocket 4.1 09:27:33 30° S 09:30:12 79° ESE 09:35:32 10° NNE
Meteor 1-11 4.5 09:26:55 20° S 09:30:59 71° E 09:36:45 10° NNE
SEDSat Delta rocket 4.1 09:28:00 33° WSW 09:31:07 64° SSE 09:37:47 10° E
Resurs 1-4 Rocket 4.1 09:29:14 10° NW 09:31:26 13° WNW 09:32:24 12° WNW
Lacrosse 4 Rocket 2.5 09:31:43 23° SSE 09:33:56 41° ESE 09:37:56 10° NE
Cosmos 1408 2.8 09:35:11 31° SSE 09:36:44 66° E 09:40:20 10° NNE
ARIANE 5 R/B 3.6 09:32:42 10° NNE 09:37:25 40° E 09:42:04 10° SSE
Meteor 2-1 Rocket 4.1 09:31:51 10° N 09:37:34 78° W 09:42:22 14° S
ATLAS 3B CENTAUR R/B 3.6 09:36:58 10° SSE 09:37:47 11° SE 09:39:04 10° SE
Cosmos 1892 3.0 09:37:51 24° SSE 09:39:55 62° E 09:43:39 10° NNE
CBERS-1 4.0 09:35:48 10° N 09:40:54 71° WNW 09:43:43 27° SSW
Cosmos 2056 Rocket 3.4 09:39:27 29° SSW 09:42:08 79° WNW 09:47:24 10° NNE
Okean 1-7 Rocket 4.4 09:39:09 13° SSE 09:42:57 50° E 09:47:13 10° NNE
IDEFIX/ARIANE 42P 3.9 09:39:22 10° NNW 09:43:30 24° WNW 09:45:05 21° W
OAO 3 Copernicus 4.5 09:41:56 32° SW 09:44:02 58° SSE 09:48:58 10° E
ADEOS II 3.7 09:41:15 10° NNW 09:44:51 19° WNW 09:46:18 17° W
Cosmos 1943 Rocket 3.6 09:43:06 10° NW 09:46:33 19° W 09:46:33 19° W
FENGYUN 3A 3.7 09:43:39 10° NNE 09:49:03 84° E 09:53:29 16° S
ALOS 2.4 09:46:56 10° NNE 09:51:36 74° ESE 09:55:32 14° S
Cosmos 1892 Rocket 4.1 09:51:00 29° SW 09:52:45 42° W 09:57:01 10° N
IRS-1D 4.5 09:49:43 10° N 09:54:24 32° WNW 09:56:50 22° WSW
Cosmos 2263 4.1 09:50:15 10° NNW 09:55:55 71° WSW 10:01:37 10° S
Cosmos 2251 Rocket 4.0 09:52:52 10° NNW 09:57:44 39° W 10:01:52 14° SSW
Cosmos 1726 Rocket 3.9 09:57:04 10° NNW 10:01:14 44° W 10:04:05 18° SSW
Cosmos 1190 Rocket 4.2 09:56:05 10° NNW 10:01:24 74° ENE 10:06:41 10° SSE
ATLAS 2A CENTAUR R/B 3.8 09:50:14 13° WSW 10:06:20 57° S 10:12:53 10° ESE
CZ-2C R/B 2.4 10:05:33 10° N 10:10:37 72° WNW 10:15:15 11° SSW
Meteor 1-29 2.7 10:09:36 10° NNE 10:12:51 88° E 10:15:48 12° SSW
PAYLOAD A 3.9 10:08:40 10° N 10:13:24 67° WNW 10:18:06 11° SSW
Cosmos 2366 rocket 4.1 10:08:00 10° NNW 10:14:00 56° W 10:20:02 10° SSW
Cosmos 2369 Rocket 2.9 10:12:55 10° NW 10:17:43 30° WSW 10:22:30 10° SSW
IRS-P3 4.1 10:13:06 10° N 10:18:25 69° WNW 10:23:41 10° SSW
Meteor 2-20 4.5 10:12:38 10° S 10:18:47 89° E 10:24:59 10° N
Cosmos 1656 Rocket 4.1 10:14:06 10° NW 10:19:01 37° WSW 10:23:58 10° S
In-Cosmos 22 Rocket 4.5 10:22:49 10° SSW 10:28:27 55° W 10:34:10 10° N
SL-08 R/B 3.7 10:26:48 10° SSE 10:31:21 67° ENE 10:35:57 10° N
DELTA 2 DEB (DPAF) 4.1 10:28:02 10° S 10:32:25 67° WSW 10:36:50 10° NNW
Cosmos 1869 3.2 10:32:26 10° N 10:36:21 82° W 10:40:11 10° S
CZ-4C R/B 4.0 10:32:52 10° SSE 10:36:22 54° ENE 10:40:03 10° N
Cosmos 1626 Rocket 4.0 10:32:42 10° SSW 10:36:52 42° W 10:41:03 10° N
Genesis I 3.6 10:35:13 10° NW 10:39:00 41° WSW 10:42:41 10° S
Cosmos 2058 Rocket 4.0 10:35:56 10° NNW 10:39:39 28° W 10:43:20 10° SSW
Cosmos 407 Rocket 4.4 10:35:43 10° NW 10:40:09 28° W 10:44:33 10° SSW
Meteor 1-27 4.2 10:34:53 10° NNW 10:40:36 73° W 10:46:13 10° S
GPS 2-04 Rocket1 2.8 10:40:01 10° W 10:43:26 60° N 10:46:59 10° E
Cosmos 1825 Rocket 4.3 10:41:28 10° S 10:45:47 56° E 10:50:07 10° NNE
SeaSat 1 2.7 10:42:04 10° NNE 10:46:53 54° WNW 10:51:40 10° SW
Cosmos 1452 Rocket 3.6 10:41:42 10° SSW 10:46:55 65° WNW 10:52:10 10° N
CZ-2C R/B 3.2 10:43:28 10° NNE 10:47:05 61° E 10:50:43 10° S
Cosmos 1633 2.5 10:46:06 10° SSW 10:49:35 66° W 10:53:07 10° N
